Arlington, TX

9:14 PM CDT on August 23, 2016 (GMT -0500)
Grand Prairie Municipal

Weather History for KGPM - August, 2013

Change the Weather History Date:

Saturday, August 17, 2013

  Actual Average (KDFW) Record (KDFW)
Temperature  
Mean Temperature 76 °F 86 °F  
Max Temperature 87 °F 97 °F 107 °F (1951)
Min Temperature 66 °F 75 °F 63 °F (1992)
Degree Days  
Heating Degree Days 0 0  
Month to date heating degree days 0  
Since 1 June heating degree days 0  
Since 1 July heating degree days 0  
Cooling Degree Days 12 21  
Month to date cooling degree days 357  
Year to date cooling degree days 1901  
Since 1 June cooling degree days 1479  
Growing Degree Days 26 (Base 50)    
Moisture  
Dew Point 58 °F    
Average Humidity 57    
Maximum Humidity 78    
Minimum Humidity 31    
Precipitation  
Precipitation 0.00 in 0.05 in 3.48 in (1915)
Month to date precipitation 0.91  
Year to date precipitation 23.11  
Sea Level Pressure  
Sea Level Pressure 30.08 in    
Wind  
Wind Speed 6 mph (ENE)    
Max Wind Speed 12 mph    
Max Gust Speed 17 mph    
Visibility 10 miles    
Events      
T = Trace of Precipitation, MM = Missing Value Source: NWS Daily Summary

Daily Weather History Graph

Daily Weather History Graph

Search for Another Location

Airport or City:

Trip Planner

Search our weather history database for the weather conditions in past years. The results will help you decide how hot, cold, wet, or windy it might be!

Date:

Astronomy

Aug. 17, 2013 Rise Set
Actual Time 6:53 AM CDT 8:10 PM CDT
Civil Twilight 6:27 AM CDT 8:36 PM CDT
Nautical Twilight 5:56 AM CDT 9:07 PM CDT
Astronomical Twilight 5:24 AM CDT 9:39 PM CDT
Moon 5:21 PM CDT (8/17) 3:03 AM CDT (8/17)
Length of Visible Light 14h 08m
Length of Day
13h 17m
Waxing Gibbous, 84% of the Moon is Illuminated
Aug 17
Waxing Gibbous
Aug 20
Full
Aug 28
Last Quarter
Sep 5
New
Sep 12
First Quarter

Hourly Weather History & Observations

Time (CDT) Temp. Heat Index Dew Point Humidity Pressure Visibility Wind Dir Wind Speed Gust Speed Precip Events Conditions
12:15 AM 75.2 °F - 59.0 °F 57% 30.10 in 10.0 mi East 6.9 mph - N/A   Clear
12:35 AM 73.4 °F - 59.0 °F 61% 30.10 in 10.0 mi East 11.5 mph - N/A   Clear
12:55 AM 73.4 °F - 59.0 °F 61% 30.10 in 10.0 mi East 10.4 mph 16.1 mph N/A   Clear
1:15 AM 73.4 °F - 59.0 °F 61% 30.10 in 10.0 mi East 6.9 mph - N/A   Clear
1:35 AM 71.6 °F - 59.0 °F 64% 30.10 in 10.0 mi East 5.8 mph - N/A   Clear
1:55 AM 71.6 °F - 60.8 °F 69% 30.10 in 10.0 mi East 4.6 mph - N/A   Clear
2:15 AM 71.6 °F - 59.0 °F 64% 30.10 in 10.0 mi East 5.8 mph - N/A   Clear
2:35 AM 69.8 °F - 59.0 °F 68% 30.10 in 10.0 mi East 6.9 mph - N/A   Clear
2:55 AM 69.8 °F - 59.0 °F 68% 30.10 in 10.0 mi East 5.8 mph - N/A   Clear
3:15 AM 69.8 °F - 59.0 °F 68% 30.10 in 10.0 mi ENE 3.5 mph - N/A   Clear
3:35 AM 69.8 °F - 59.0 °F 68% 30.10 in 10.0 mi East 4.6 mph - N/A   Clear
3:55 AM 69.8 °F - 59.0 °F 68% 30.10 in 10.0 mi East 5.8 mph - N/A   Clear
4:15 AM 68.0 °F - 59.0 °F 73% 30.10 in 10.0 mi East 3.5 mph - N/A   Clear
4:35 AM 68.0 °F - 59.0 °F 73% 30.10 in 10.0 mi Calm Calm - N/A   Clear
4:55 AM 68.0 °F - 59.0 °F 73% 30.10 in 10.0 mi NE 4.6 mph - N/A   Clear
5:15 AM 68.0 °F - 59.0 °F 73% 30.10 in 10.0 mi NE 4.6 mph - N/A   Clear
5:35 AM 68.0 °F - 59.0 °F 73% 30.10 in 10.0 mi ENE 3.5 mph - N/A   Clear
5:55 AM 68.0 °F - 59.0 °F 73% 30.10 in 10.0 mi East 4.6 mph - N/A   Clear
6:15 AM 66.2 °F - 59.0 °F 78% 30.10 in 10.0 mi ENE 5.8 mph - N/A   Clear
6:35 AM 68.0 °F - 59.0 °F 73% 30.10 in 10.0 mi ENE 6.9 mph - N/A   Clear
6:50 AM 68.0 °F - 60.8 °F 78% 30.11 in 10.0 mi ENE 6.9 mph - N/A   Clear
6:55 AM 68.0 °F - 59.0 °F 73% 30.11 in 10.0 mi ENE 6.9 mph - N/A   Clear
7:50 AM 68.0 °F - 59.0 °F 73% 30.12 in 10.0 mi ENE 6.9 mph - N/A   Clear
8:50 AM 69.8 °F - 59.0 °F 68% 30.12 in 10.0 mi East 6.9 mph - N/A   Clear
10:50 AM 75.2 °F - 57.2 °F 53% 30.14 in 10.0 mi NNE 4.6 mph - N/A   Clear
11:53 AM 80.6 °F 80.8 °F 57.2 °F 45% 30.12 in 10.0 mi NE 6.9 mph - N/A   Clear
12:57 PM 82.4 °F 82.0 °F 57.2 °F 42% 30.09 in 10.0 mi North 8.1 mph - N/A   Clear
1:50 PM 84.2 °F 83.5 °F 57.2 °F 40% 30.08 in 10.0 mi NNE 10.4 mph - N/A   Clear
2:58 PM 86.0 °F 84.2 °F 53.6 °F 33% 30.04 in 10.0 mi North 9.2 mph - N/A   Clear
3:53 PM 87.8 °F 85.7 °F 53.6 °F 31% 30.03 in 10.0 mi NE 6.9 mph - N/A   Clear
4:50 PM 87.8 °F 85.7 °F 53.6 °F 31% 30.02 in 10.0 mi NE 10.4 mph 17.3 mph N/A   Clear
5:52 PM 87.8 °F 85.7 °F 53.6 °F 31% 30.01 in 10.0 mi ENE 8.1 mph - N/A   Clear
6:59 PM 87.8 °F 85.7 °F 53.6 °F 31% 30.00 in 10.0 mi ENE 9.2 mph 17.3 mph N/A   Clear
7:51 PM 84.2 °F 82.8 °F 53.6 °F 35% 30.01 in 10.0 mi NE 6.9 mph - N/A   Clear
9:15 PM 80.6 °F 80.5 °F 55.4 °F 42% 30.02 in 10.0 mi NE 4.6 mph - N/A   Clear
9:35 PM 80.6 °F 80.5 °F 55.4 °F 42% 30.03 in 10.0 mi East 4.6 mph - N/A   Clear
9:55 PM 78.8 °F - 59.0 °F 51% 30.04 in 10.0 mi Calm Calm - N/A   Clear
10:15 PM 78.8 °F - 57.2 °F 47% 30.04 in 10.0 mi Calm Calm - N/A   Clear
10:35 PM 78.8 °F - 57.2 °F 47% 30.05 in 10.0 mi Calm Calm - N/A   Clear
10:55 PM 78.8 °F - 55.4 °F 44% 30.05 in 10.0 mi Calm Calm - N/A   Clear
11:15 PM 77.0 °F - 57.2 °F 50% 30.06 in 10.0 mi Calm Calm - N/A   Clear
11:35 PM 77.0 °F - 57.2 °F 50% 30.06 in 10.0 mi Calm Calm - N/A   Clear
11:55 PM 77.0 °F - 57.2 °F 50% 30.06 in 10.0 mi Calm Calm - N/A   Clear